Home > Weather > Meerbusch > Past weeks

Flag for Germany Past Weather in Meerbusch, North Rhine-Westphalia, Germany — Yesterday and Last 2 Weeks

Now
66 °F

Sprinkles. Partly sunny.


Feels Like: 66 °F
Forecast: 62 / 67 °F
Wind: 10 mph from North

Location: Duesseldorf

Current Time: May 29, 2016 at 7:26:43 PM

Latest Report: May 29, 2016 at 6:50 PM


Visibility: N/A

Pressure: 29.71 "Hg

Humidity: 78%

Dew Point: 59 °F

Location of MeerbuschLocation

Past Weather in Meerbusch — Graph

°F

Meerbusch Temperature Yesterday

Maximum temperature yesterday: 77 °F (at 2:50 PM)
Minimum temperature yesterday: 55 °F (at 4:20 AM)
Average temperature yesterday: 66 °F

High & Low Weather Summary for the Past Weeks

 TemperatureHumidityPressure
High77 °F (May 28, 2:50 PM)100% (May 19, 3:50 AM)30.12 "Hg (May 19, 3:50 AM)
Low41 °F (May 15, 5:20 AM)38% (May 26, 4:50 PM)29.68 "Hg (May 18, 7:20 PM)
Average58 °F73%29.94 "Hg
* Reported May 14 5:20 PM — May 29 5:50 PM, Meerbusch, Weather by CustomWeather, © 2016

Note: Actual official high and low records may vary slightly from our data, if they occured in-between our weather recording intervals... More about our weather records

Advertising

Meerbusch Weather History for the Previous 24 Hours

Scroll right to see more
 ConditionsComfort  
Time TempWeatherWind HumidityBarometerVisibility
5:50 PM
Sun, May 29
66 °FSprinkles. Broken clouds.12 mph78%29.71 "HgN/A
5:20 PM66 °FScattered showers. Broken clouds.9 mph78%29.71 "HgN/A
4:50 PM66 °FSprinkles. Broken clouds.13 mph83%29.71 "HgN/A
4:20 PM66 °FScattered showers. Broken clouds.16 mph78%29.71 "HgN/A
3:50 PM68 °FScattered showers. Broken clouds.14 mph78%29.71 "HgN/A
3:20 PM68 °FSprinkles. Broken clouds.16 mph73%29.71 "HgN/A
2:50 PM68 °FScattered showers. Broken clouds.16 mph73%29.71 "HgN/A
2:20 PM72 °FBroken clouds.17 mph69%29.71 "HgN/A
1:50 PM70 °FBroken clouds.12 mph69%29.71 "HgN/A
1:20 PM70 °FPartly sunny.13 mph69%29.71 "HgN/A
12:50 PM70 °FPartly sunny.14 mph69%29.71 "HgN/A
12:20 PM72 °FPartly sunny.13 mph65%29.71 "HgN/A
11:50 AM73 °FBroken clouds.12 mph61%29.71 "HgN/A
11:20 AM72 °FBroken clouds.13 mph65%29.71 "HgN/A
10:50 AM72 °FBroken clouds.13 mph65%29.74 "HgN/A
10:20 AM70 °FBroken clouds.12 mph69%29.74 "HgN/A
9:50 AM68 °FPassing clouds.9 mph73%29.74 "HgN/A
9:20 AM66 °FSunny.10 mph78%29.74 "Hg10 mi
8:50 AM66 °FSunny.8 mph78%29.74 "Hg10 mi
8:20 AM64 °FSunny.9 mph83%29.74 "Hg10 mi
7:50 AM63 °FSunny.6 mph83%29.74 "Hg10 mi
7:20 AM63 °FSunny.3 mph83%29.74 "Hg10 mi
6:50 AM61 °FSunny.2 mph83%29.74 "Hg10 mi
6:20 AM59 °FClear.2 mph88%29.74 "Hg10 mi
5:50 AM59 °FPassing clouds.5 mph88%29.77 "HgN/A
5:20 AM57 °FClear.6 mph88%29.77 "Hg10 mi
4:50 AM57 °FClear.6 mph94%29.77 "Hg10 mi
4:20 AM55 °FFog.3 mph94%29.77 "HgN/A
3:50 AM55 °FFog.3 mph100%29.77 "HgN/A
3:20 AM57 °FFog.2 mph94%29.77 "HgN/A
2:50 AM57 °FClear.2 mph94%29.80 "Hg10 mi
2:20 AM59 °FClear.6 mph88%29.80 "Hg10 mi
1:50 AM57 °FClear.7 mph94%29.80 "Hg10 mi
1:20 AM61 °FClear.2 mph88%29.80 "Hg10 mi
12:50 AM63 °FPassing clouds.3 mph83%29.80 "HgN/A
12:20 AM63 °FClear.7 mph77%29.80 "Hg10 mi
11:50 PM
Sat, May 28
63 °FClear.8 mph83%29.80 "Hg10 mi
11:20 PM66 °FPassing clouds.5 mph73%29.80 "HgN/A
10:50 PM66 °FClear.6 mph78%29.80 "Hg10 mi
10:20 PM68 °FSunny.6 mph69%29.80 "Hg10 mi
9:50 PM68 °FSunny.6 mph73%29.83 "Hg10 mi
9:20 PM70 °FSunny.6 mph64%29.83 "Hg10 mi
8:50 PM70 °FSunny.7 mph64%29.83 "Hg10 mi
8:20 PM70 °FBroken clouds.3 mph73%29.83 "HgN/A
7:50 PM72 °FBroken clouds.2 mph65%29.83 "HgN/A
7:20 PM73 °FBroken clouds.5 mph61%29.83 "HgN/A
Weather by CustomWeather, © 2016

See weather overviewHow to use our weather pages